Weather History for KSSC - January, 2013

Change the Weather History Date:

Saturday, January 5, 2013

  Actual Average Record
Temperature  
Mean Temperature 40 °F -  
Max Temperature 52 °F 56 °F 75 °F (1998)
Min Temperature 27 °F 34 °F 19 °F (1999)
Degree Days  
Heating Degree Days 26    
Moisture  
Dew Point 24 °F    
Average Humidity 51    
Maximum Humidity 74    
Minimum Humidity 24    
Precipitation  
Precipitation 0.00 in - - ()
Sea Level Pressure  
Sea Level Pressure 30.33 in    
Wind  
Wind Speed 3 mph (ENE)    
Max Wind Speed 10 mph    
Max Gust Speed -    
Visibility 10 miles    
Events Rain    
Averages and records for this station are not official NWS values.
T = Trace of Precipitation, MM = Missing Value Source: NWS Daily Summary

Daily Weather History Graph

Daily Weather History Graph

Search for Another Location

Airport or City:

Trip Planner

Search our weather history database for the weather conditions in past years. The results will help you decide how hot, cold, wet, or windy it might be!

Date:

Astronomy

Jan. 05, 2013 Rise Set
Actual Time 7:27 AM EST 5:27 PM EST
Civil Twilight 7:00 AM EST 5:54 PM EST
Nautical Twilight 6:29 AM EST 6:25 PM EST
Astronomical Twilight 5:58 AM EST 6:56 PM EST
Moon 12:42 AM EST 12:07 PM EST
Length of Visible Light 10h 54m
Length of Day
9h 59m
Last Quarter, 44% of the Moon is Illuminated
Jan 5
Last Quarter
Jan 11
New
Jan 18
First Quarter
Jan 26
Full
Feb 3
Last Quarter

Hourly Weather History & Observations

Time (EST) Temp. Windchill Dew Point Humidity Pressure Visibility Wind Dir Wind Speed Gust Speed Precip Events Conditions
12:55 AM 38.8 °F 36.5 °F 23.4 °F 54% 30.32 in 10.0 mi NNW 3.5 mph - N/A   Clear
1:55 AM 33.8 °F 29.6 °F 21.7 °F 61% 30.32 in 10.0 mi North 4.6 mph - N/A   Clear
2:55 AM 36.3 °F 28.9 °F 20.5 °F 53% 30.32 in 10.0 mi North 10.4 mph - N/A   Clear
3:55 AM 33.1 °F 28.7 °F 18.7 °F 56% 30.33 in 10.0 mi North 4.6 mph - N/A   Clear
4:55 AM 33.4 °F 30.4 °F 18.1 °F 54% 30.35 in 10.0 mi North 3.5 mph - N/A   Clear
5:55 AM 30.6 °F - 19.2 °F 63% 30.35 in 10.0 mi Calm Calm - N/A   Clear
6:55 AM 28.8 °F - 20.1 °F 70% 30.36 in 10.0 mi Calm Calm - N/A   Clear
7:55 AM 27.7 °F - 20.5 °F 74% 30.38 in 10.0 mi Calm Calm - N/A   Clear
8:55 AM 36.9 °F - 23.2 °F 58% 30.40 in 10.0 mi Calm Calm - N/A   Clear
9:55 AM 41.4 °F 37.6 °F 20.8 °F 44% 30.41 in 10.0 mi NE 5.8 mph - N/A   Clear
10:55 AM 45.0 °F 41.2 °F 19.6 °F 36% 30.41 in 10.0 mi East 6.9 mph - N/A   Clear
11:55 AM 47.3 °F - 19.2 °F 33% 30.38 in 10.0 mi East 5.8 mph - N/A   Clear
12:55 PM 50.9 °F - 16.9 °F 26% 30.35 in 10.0 mi SE 3.5 mph - N/A   Clear
1:55 PM 51.4 °F - 17.8 °F 26% 30.32 in 10.0 mi SSE 3.5 mph - N/A   Clear
2:55 PM 52.3 °F - 16.5 °F 24% 30.30 in 10.0 mi Calm Calm - N/A   Clear
3:55 PM 52.0 °F - 18.5 °F 27% 30.31 in 10.0 mi Calm Calm - N/A   Clear
4:55 PM 51.1 °F - 19.9 °F 29% 30.31 in 10.0 mi Calm Calm - N/A   Clear
5:55 PM 46.4 °F 45.2 °F 25.3 °F 44% 30.30 in 10.0 mi SE 3.5 mph - N/A   Clear
6:55 PM 44.8 °F - 28.9 °F 54% 30.31 in 10.0 mi Calm Calm - N/A   Clear
7:55 PM 44.4 °F - 30.9 °F 59% 30.32 in 10.0 mi Calm Calm - N/A   Clear
8:55 PM 45.0 °F - 31.8 °F 60% 30.32 in 10.0 mi Calm Calm - N/A   Partly Cloudy
9:55 PM 45.1 °F - 31.1 °F 58% 30.32 in 10.0 mi Calm Calm - N/A   Partly Cloudy
10:55 PM 45.5 °F - 31.6 °F 58% 30.30 in 10.0 mi Calm Calm - N/A   Scattered Clouds
11:02 PM 44.6 °F - 33.8 °F 66% 30.29 in 10.0 mi Calm Calm - N/A Rain Light Rain
11:16 PM 44.6 °F - 33.8 °F 66% 30.29 in 10.0 mi Calm Calm - N/A   Scattered Clouds
11:55 PM 44.2 °F 42.7 °F 35.4 °F 71% 30.28 in 10.0 mi South 3.5 mph - 0.00 in   Partly Cloudy